Location: Dyersburg
(36.0438°N, 89.3789°W)
Time: 12:13:51
(UTC+00:00)

SR - All Passes

Search period start: 17 February 2020 00:00
Search period end: 27 February 2020 00:00
Orbit: 575 x 881 km, 66.7° (Epoch: 17 February)

Date Brightness Start Highest point End Pass type
(mag) Time Alt. Az. Time Alt. Az. Time Alt. Az.
17 Feb - 00:24:44 10° WNW 00:26:31 11° NW 00:28:17 10° NNW visible
17 Feb - 07:22:17 10° NNW 07:27:24 52° ENE 07:32:02 10° SE night (unlit)
17 Feb - 09:05:58 10° WNW 09:08:49 15° WSW 09:11:34 10° SW night (unlit)
17 Feb - 21:47:48 10° SSW 21:53:37 67° ESE 21:59:29 10° NNE daylight
17 Feb - 23:31:57 10° W 23:36:14 20° NW 23:40:30 10° N daylight
18 Feb - 06:33:06 10° N 06:37:27 26° NE 06:41:29 10° ESE night (unlit)
18 Feb - 08:14:58 10° NW 08:19:34 34° WSW 08:23:48 10° S night (unlit)
18 Feb - 20:58:57 10° S 21:04:07 34° ESE 21:09:23 10° NE daylight
18 Feb - 22:40:47 10° WSW 22:46:10 36° NW 22:51:34 10° N daylight
19 Feb - 05:44:37 10° NNE 05:47:16 14° NE 05:49:49 10° ENE night (unlit)
19 Feb - 07:24:56 10° NNW 07:30:06 79° WSW 07:34:47 10° SSE night (unlit)
19 Feb - 20:11:16 10° SE 20:14:49 17° ESE 20:18:23 10° ENE daylight
19 Feb - 21:50:28 10° SW 21:56:19 68° WNW 22:02:13 10° NNE daylight
19 Feb - 23:37:20 10° WNW 23:39:29 12° NW 23:41:37 10° NNW daylight
20 Feb - 06:35:21 10° NNW 06:40:23 48° ENE 06:44:58 10° SE night (unlit)
20 Feb - 08:18:48 10° WNW 08:21:53 16° WSW 08:24:48 10° SW night (unlit)
20 Feb - 21:00:52 10° SSW 21:06:40 63° ESE 21:12:30 10° NE daylight
20 Feb - 22:44:49 10° W 22:49:13 21° NW 22:53:37 10° N daylight
21 Feb - 05:46:13 10° N 05:50:26 24° NE 05:54:20 10° ESE night (unlit)
21 Feb - 07:27:57 10° NW 07:32:36 37° WSW 07:36:52 10° S night (unlit)
21 Feb - 20:12:04 10° S 20:17:11 32° ESE 20:22:20 10° NE daylight
21 Feb - 21:53:43 10° WSW 21:59:11 38° NW 22:04:38 10° NNE daylight
22 Feb - 04:57:52 10° NNE 05:00:13 13° NE 05:02:29 10° ENE night (unlit)
22 Feb - 06:37:57 10° NNW 06:43:07 84° WSW 06:47:46 10° SSE night (unlit)
22 Feb - 19:24:34 10° SE 19:27:53 15° ESE 19:31:12 10° ENE daylight
22 Feb - 21:03:28 10° SSW 21:09:21 72° WNW 21:15:15 10° NNE daylight
22 Feb - 22:50:00 10° WNW 22:52:26 13° NW 22:54:53 10° NNW daylight
23 Feb - 05:48:26 10° NNW 05:53:23 44° ENE 05:57:53 10° SE night (unlit)
23 Feb - 07:31:41 10° WNW 07:34:55 18° WSW 07:38:00 10° SW night (unlit)
23 Feb - 20:13:57 10° S 20:19:43 60° ESE 20:25:31 10° NE daylight
23 Feb - 21:57:40 10° W 22:02:13 22° NW 22:06:43 10° N daylight
24 Feb - 04:59:20 10° N 05:03:24 23° NE 05:07:11 10° ESE night (unlit)
24 Feb - 06:40:57 10° NW 06:45:39 39° WSW 06:49:56 10° S night (unlit)
24 Feb - 19:25:14 10° SSE 19:30:15 30° ESE 19:35:17 10° NE daylight
24 Feb - 21:06:40 10° SW 21:12:12 40° WNW 21:17:42 10° NNE daylight
25 Feb - 04:11:11 10° NNE 04:13:10 12° NE 04:15:07 10° ENE night (unlit)
25 Feb - 05:51:00 10° NNW 05:56:08 90° SSE 06:00:46 10° SSE night (unlit)
25 Feb - 18:37:55 10° SE 18:40:57 14° ESE 18:43:59 10° ENE daylight
25 Feb - 20:16:29 10° SSW 20:22:23 76° WNW 20:28:17 10° NNE daylight
25 Feb - 22:02:42 10° WNW 22:05:25 13° NW 22:08:07 10° NNW daylight
26 Feb - 05:01:30 10° NNW 05:06:22 41° ENE 05:10:48 10° SE night (unlit)
26 Feb - 06:44:34 10° WNW 06:47:58 19° WSW 06:51:12 10° SSW night (unlit)
26 Feb - 19:27:02 10° S 19:32:46 56° ESE 19:38:31 10° NE daylight
26 Feb - 21:10:33 10° WSW 21:15:12 23° NW 21:19:49 10° N daylight
